Location: Bonny Doon Airfield
(37.0704°N, 122.1252°W)
Time: 16:39:39
(UTC-08:00)

OTV 5 (USA 277) - Pass Details

Date: 07 October 2017
Orbit: 404 x 417 km, 43.0° (Epoch: 07 September)

Event Time Altitude Azimuth Distance (km) Brightness Sun altitude
Rises 20:43:34 0° 237° (WSW) 2,342 ? -24.9°
Reaches altitude 10° 20:45:41 10° 235° (SW) 1,482 ? -25.3°
Enters shadow 20:46:45 19° 231° (SW) 1,059 ? -25.5°
